FENGYUN 1C DEB, 41828

Orbit data source: Space-Track

FENGYUN 1C DEB, 41828 is space debris in SSO originally from a launch on Mon, 10 May 1999 UTC launched from the Taiyaun Space Center, China (TSC). Fengyun 1C debris stems from the Chinese weather satellite Fengyun-1C, which was intentionally destroyed by a Chinese anti-satellite missile in 2007. This event dramatically increased the amount of space debris, with thousands of trackable fragments posing hazards to satellites and human spaceflight. The Fengyun 1C debris cloud has become a focal point in discussions about space sustainability and the need for international regulations to prevent the creation of new debris.

Loading next visibility...
Identifier
41828, 1999-025EYF
Orbit
SSO
Country
Flag of CNCN / PRC
Related business
Manufacturer
Unknown
Mission
Spacecraft
Bus & Motor
Unknown
Mass
Unknown
Launch date (UTC)
1999-05-10 (27 years ago)
Launch vehicle
Unknown
Launch site
Taiyaun Space Center, China (TSC)
Object type
Payload
Rocket body
Debris
Shape & HBR
Unknown shape, 0.1 m
Radar Cross Section
Medium (>0.1 m² and <1 m²)

Expand to show TLE details & history
Last TLE update: 15 hours ago

TLE from 15 hours ago
0 FENGYUN 1C DEB
1 41828U 99025EYF 26256.39763405  .00008907  00000-0  18330-2 0  9997
2 41828  98.9215  48.5863 0032490  61.9959 298.4520 14.60465706514627
Epoch: 2026-09-13T09:32Z
TLE epoch observation values (Epoch: 2026-09-13T09:32:35.581Z)
Latitude
-0.00004°
Longitude
-86.95481°
Altitude
683.746 km
Speed
7.52 km/s
True Right ascension
03h 14m 20s
True Declination
0° 00' 00"
Sunlit
Object was in full shadow at epoch
Visualization orbit readout
Latitude
Unknown
Longitude
Unknown
Altitude
Unknown
Speed
Unknown
Apparent Right ascension
Unknown
Apparent Declination
Unknown
Sunlit
N/A
Visualization observer readout
Local Sidereal Time
16:55:31
Azimuth
Unknown
Elevation
Unknown
Doppler factor
Unknown
Orbital elements
Apogee altitude
711.746 km
Perigee altitude
665.825 km
Semi-major axis
7,066.923 km
Eccentricity
0.00325
Inclination
98.9215°
RAAN
48.5863°
Arg. of periapsis
61.9959°
True anomaly
298.12403°
Mean anomaly
298.452°
Eccentric anomaly
298.28808°
Mean motion
3.6534 °/min
Orbital period
98.54 mins
BSTAR
0.001833
Loading maneuver chart data...
Computing Atmospheric mass density...
Loading historical data...
Loading historical data...
Loading historical data...
Loading historical data...
Loading historical data...
Loading historical data...
Loading historical data...

Documentation

Showing up to 5 results
|